| time (UTC) | temp F | wind direction | speed knots | gust knots | rain 1hr in | rain 24hr in | rain mn in | humidity % | barometer mb |
| 20260504150710 | 74 | 321 | 0.9 | 0.9 | 0.00 | 0.00 | 0.00 | 54 | 1016.8 |
| 20260504150207 | 73 | 5 | 0.0 | 0.9 | 0.00 | 0.00 | 0.00 | 56 | 1016.5 |
| 20260504141136 | 70 | 294 | 1.7 | 2.6 | 0.00 | 0.00 | 0.00 | 67 | 1016.8 |
| 20260504140633 | 71 | 350 | 0.0 | 0.9 | 0.00 | 0.00 | 0.00 | 70 | 1016.8 |
| 20260504140128 | 70 | 356 | 0.9 | 1.7 | 0.00 | 0.00 | 0.00 | 68 | 1016.8 |
| 20260504130557 | 59 | 347 | 0.0 | 0.9 | 0.00 | 0.00 | 0.00 | 99 | 1017.0 |
| 20260504110444 | 48 | 330 | 0.0 | 0.0 | 0.00 | 0.00 | 0.00 | 99 | 1016.7 |
| 20260504100407 | 50 | 330 | 0.0 | 0.0 | 0.00 | 0.00 | 0.00 | 99 | 1016.6 |
| 20260504081800 | 52 | 330 | 0.0 | 0.0 | 0.00 | 0.00 | 0.00 | 99 | 1016.6 |
| 20260504081256 | 52 | 330 | 0.0 | 0.0 | 0.00 | 0.00 | 0.00 | 99 | 1016.7 |
| 20260504080753 | 52 | 330 | 0.0 | 0.0 | 0.00 | 0.00 | 0.00 | 99 | 1016.6 |
| 20260504080249 | 52 | 330 | 0.0 | 0.0 | 0.00 | 0.00 | 0.00 | 99 | 1016.5 |
| 20260504070217 | 53 | 325 | 0.0 | 0.0 | 0.00 | 0.00 | 0.00 | 99 | 1016.8 |
| 20260504060137 | 54 | 326 | 0.0 | 0.0 | 0.00 | 0.00 | 0.00 | 98 | 1017.5 |
| 20260504050606 | 54 | 334 | 0.0 | 0.0 | 0.00 | 0.00 | 0.00 | 98 | 1017.8 |
| 20260504045559 | 54 | 327 | 0.0 | 0.0 | 0.00 | 0.02 | 0.02 | 97 | 1017.9 |
| 20260504045054 | 54 | 328 | 0.0 | 0.0 | 0.00 | 0.02 | 0.02 | 97 | 1017.8 |
| 20260504044553 | 55 | 328 | 0.0 | 0.0 | 0.00 | 0.02 | 0.02 | 97 | 1018.1 |
| 20260504044049 | 55 | 328 | 0.0 | 0.0 | 0.00 | 0.02 | 0.02 | 97 | 1017.7 |
| 20260504043547 | 54 | 327 | 0.0 | 0.0 | 0.00 | 0.02 | 0.02 | 96 | 1017.9 |
| 20260504043044 | 54 | 328 | 0.0 | 0.0 | 0.00 | 0.02 | 0.02 | 96 | 1017.6 |
| 20260504042541 | 55 | 328 | 0.0 | 0.0 | 0.00 | 0.02 | 0.02 | 96 | 1017.9 |
| 20260504042038 | 54 | 320 | 0.0 | 0.0 | 0.00 | 0.02 | 0.02 | 96 | 1017.8 |
| 20260504041533 | 54 | 320 | 0.0 | 0.0 | 0.00 | 0.02 | 0.02 | 96 | 1017.8 |
| 20260504041029 | 54 | 323 | 0.0 | 0.0 | 0.00 | 0.02 | 0.02 | 96 | 1017.9 |
| 20260504040527 | 55 | 322 | 0.0 | 0.0 | 0.00 | 0.02 | 0.02 | 95 | 1018.0 |
| 20260504040024 | 55 | 324 | 0.0 | 0.0 | 0.00 | 0.02 | 0.02 | 95 | 1017.7 |
| 20260504035521 | 55 | 324 | 0.0 | 0.0 | 0.00 | 0.02 | 0.02 | 95 | 1017.7 |
| 20260504035017 | 55 | 324 | 0.0 | 0.0 | 0.00 | 0.02 | 0.02 | 95 | 1018.0 |
| 20260504034515 | 55 | 318 | 0.0 | 0.0 | 0.00 | 0.02 | 0.02 | 94 | 1018.0 |
| 20260504034012 | 55 | 315 | 0.0 | 0.0 | 0.00 | 0.02 | 0.02 | 94 | 1017.8 |
| 20260504033509 | 55 | 315 | 0.0 | 0.0 | 0.00 | 0.02 | 0.02 | 94 | 1017.8 |
| 20260504033007 | 56 | 318 | 0.0 | 0.0 | 0.00 | 0.02 | 0.02 | 94 | 1017.9 |
| 20260504032503 | 56 | 323 | 0.0 | 0.0 | 0.00 | 0.02 | 0.02 | 93 | 1017.8 |
| 20260504032000 | 56 | 323 | 0.0 | 0.0 | 0.00 | 0.02 | 0.02 | 93 | 1017.7 |
| 20260504031456 | 56 | 315 | 0.0 | 0.0 | 0.00 | 0.02 | 0.02 | 93 | 1017.9 |
| 20260504030953 | 56 | 314 | 0.9 | 1.7 | 0.00 | 0.02 | 0.02 | 92 | 1017.9 |
| 20260504030451 | 56 | 329 | 0.0 | 0.0 | 0.00 | 0.02 | 0.02 | 91 | 1017.7 |
| 20260504025946 | 56 | 329 | 0.0 | 0.0 | 0.00 | 0.02 | 0.02 | 91 | 1017.6 |
| 20260504025443 | 56 | 329 | 0.0 | 0.0 | 0.00 | 0.02 | 0.02 | 90 | 1017.8 |
| 20260504024941 | 56 | 328 | 0.0 | 0.0 | 0.00 | 0.02 | 0.02 | 89 | 1017.7 |
| 20260504024438 | 57 | 329 | 0.0 | 0.0 | 0.00 | 0.02 | 0.02 | 89 | 1017.5 |
| 20260504023934 | 57 | 329 | 0.0 | 0.0 | 0.00 | 0.02 | 0.02 | 89 | 1017.5 |
| 20260504023431 | 57 | 329 | 0.0 | 0.0 | 0.00 | 0.02 | 0.02 | 89 | 1017.5 |
| 20260504022926 | 57 | 328 | 0.0 | 0.0 | 0.00 | 0.02 | 0.02 | 88 | 1017.4 |
| 20260504022423 | 57 | 328 | 0.0 | 0.0 | 0.00 | 0.02 | 0.02 | 87 | 1017.5 |
| 20260504021920 | 58 | 328 | 0.0 | 0.0 | 0.00 | 0.02 | 0.02 | 87 | 1017.4 |
| 20260504021417 | 58 | 328 | 0.0 | 0.0 | 0.00 | 0.02 | 0.02 | 87 | 1017.1 |
| 20260504020914 | 59 | 328 | 0.0 | 0.0 | 0.00 | 0.02 | 0.02 | 87 | 1017.1 |
| 20260504020411 | 59 | 328 | 0.0 | 0.0 | 0.00 | 0.02 | 0.02 | 86 | 1017.1 |
| 20260504015908 | 59 | 329 | 0.0 | 0.0 | 0.00 | 0.02 | 0.02 | 85 | 1017.0 |
| 20260504015403 | 59 | 328 | 0.0 | 0.0 | 0.00 | 0.02 | 0.02 | 85 | 1017.0 |
| 20260504014859 | 59 | 326 | 0.0 | 0.0 | 0.00 | 0.02 | 0.02 | 84 | 1016.9 |
| 20260504014355 | 60 | 326 | 0.0 | 0.0 | 0.00 | 0.02 | 0.02 | 84 | 1016.9 |
| 20260504013853 | 60 | 326 | 0.0 | 0.0 | 0.00 | 0.02 | 0.02 | 84 | 1016.7 |
| 20260504013351 | 60 | 326 | 0.0 | 0.0 | 0.00 | 0.02 | 0.02 | 83 | 1016.9 |
| 20260504012847 | 60 | 326 | 0.0 | 0.0 | 0.00 | 0.02 | 0.02 | 82 | 1016.8 |
| 20260504012345 | 60 | 326 | 0.0 | 0.0 | 0.00 | 0.02 | 0.02 | 81 | 1016.7 |
| 20260504011842 | 61 | 326 | 0.0 | 0.0 | 0.00 | 0.02 | 0.02 | 81 | 1016.6 |
| 20260504011339 | 62 | 326 | 0.0 | 0.0 | 0.05 | 0.02 | 0.02 | 80 | 1016.6 |
| 20260504010835 | 62 | 326 | 0.0 | 0.0 | 0.05 | 0.02 | 0.02 | 79 | 1016.6 |
| 20260504010330 | 62 | 326 | 0.0 | 0.0 | 0.00 | 0.01 | 0.01 | 77 | 1016.4 |
| 20260504005827 | 63 | 326 | 0.0 | 0.0 | 0.00 | 0.01 | 0.01 | 74 | 1016.5 |
| 20260504005324 | 63 | 325 | 0.0 | 0.0 | 0.00 | 0.01 | 0.01 | 74 | 1016.4 |
| 20260504004822 | 64 | 327 | 0.0 | 0.0 | 0.00 | 0.01 | 0.01 | 73 | 1016.4 |
| 20260504004319 | 64 | 327 | 0.0 | 0.0 | 0.00 | 0.01 | 0.01 | 71 | 1016.4 |
| 20260504003815 | 65 | 326 | 0.0 | 0.0 | 0.00 | 0.01 | 0.01 | 72 | 1016.5 |
| 20260504003313 | 66 | 325 | 0.0 | 0.0 | 0.00 | 0.01 | 0.01 | 70 | 1016.2 |
| 20260504002809 | 66 | 343 | 0.0 | 0.0 | 0.00 | 0.01 | 0.01 | 69 | 1016.4 |
| 20260504002306 | 66 | 334 | 0.0 | 0.0 | 0.00 | 0.01 | 0.01 | 63 | 1016.3 |
| 20260504001804 | 67 | 325 | 0.0 | 0.0 | 0.00 | 0.01 | 0.01 | 64 | 1016.2 |
| 20260504001301 | 67 | 322 | 0.0 | 0.0 | 0.00 | 0.01 | 0.01 | 67 | 1016.5 |
| 20260504000758 | 68 | 351 | 0.9 | 0.9 | 0.00 | 0.01 | 0.01 | 63 | 1016.1 |
| 20260504000254 | 69 | 330 | 0.0 | 0.0 | 0.00 | 0.01 | 0.01 | 59 | 1016.2 |
| 20260503235752 | 69 | 330 | 0.0 | 0.0 | 0.00 | 0.01 | 0.01 | 61 | 1016.1 |
| 20260503235249 | 71 | 330 | 0.0 | 0.0 | 0.00 | 0.01 | 0.01 | 58 | 1015.8 |
| 20260503234747 | 72 | 330 | 0.0 | 0.0 | 0.00 | 0.01 | 0.01 | 53 | 1016.2 |
| 20260503234245 | 73 | 340 | 0.0 | 0.9 | 0.00 | 0.01 | 0.01 | 48 | 1016.1 |
| 20260503233742 | 73 | 331 | 1.7 | 1.7 | 0.00 | 0.01 | 0.01 | 44 | 1016.3 |
| 20260503233238 | 73 | 338 | 1.7 | 2.6 | 0.00 | 0.01 | 0.01 | 44 | 1016.3 |
| 20260503232735 | 73 | 305 | 0.9 | 2.6 | 0.00 | 0.01 | 0.01 | 43 | 1016.2 |
| 20260503232232 | 73 | 343 | 2.6 | 2.6 | 0.00 | 0.01 | 0.01 | 44 | 1016.3 |
| 20260503231730 | 74 | 340 | 0.9 | 2.6 | 0.00 | 0.01 | 0.01 | 41 | 1016.4 |
| 20260503231226 | 74 | 336 | 2.6 | 2.6 | 0.00 | 0.01 | 0.01 | 46 | 1016.1 |
| 20260503230722 | 74 | 313 | 0.0 | 4.3 | 0.00 | 0.01 | 0.01 | 46 | 1016.1 |
| 20260503230220 | 74 | 321 | 0.0 | 0.9 | 0.00 | 0.01 | 0.01 | 42 | 1016.2 |
| 20260503225717 | 75 | 322 | 0.0 | 0.9 | 0.00 | 0.01 | 0.01 | 43 | 1016.3 |
| 20260503225217 | 74 | 346 | 0.9 | 5.2 | 0.00 | 0.01 | 0.01 | 40 | 1016.2 |
| 20260503224715 | 76 | 310 | 0.0 | 0.0 | 0.00 | 0.01 | 0.01 | 40 | 1016.4 |
| 20260503224213 | 76 | 320 | 0.0 | 0.0 | 0.00 | 0.01 | 0.01 | 43 | 1016.5 |
| 20260503223710 | 75 | 348 | 1.7 | 2.6 | 0.00 | 0.01 | 0.01 | 42 | 1016.4 |
| 20260503223207 | 75 | 52 | 0.9 | 2.6 | 0.00 | 0.01 | 0.01 | 42 | 1016.5 |
| 20260503222704 | 74 | 347 | 2.6 | 5.2 | 0.00 | 0.01 | 0.01 | 40 | 1016.4 |
| 20260503222201 | 74 | 45 | 2.6 | 6.1 | 0.00 | 0.01 | 0.01 | 40 | 1016.5 |
| 20260503221700 | 75 | 330 | 2.6 | 4.3 | 0.00 | 0.01 | 0.01 | 40 | 1016.6 |
| 20260503221157 | 74 | 330 | 0.9 | 1.7 | 0.00 | 0.01 | 0.01 | 41 | 1016.5 |
| 20260503220653 | 74 | 359 | 2.6 | 6.1 | 0.00 | 0.01 | 0.01 | 40 | 1016.8 |
| 20260503220150 | 75 | 295 | 2.6 | 6.1 | 0.00 | 0.01 | 0.01 | 38 | 1016.7 |
| 20260503215647 | 76 | 301 | 0.9 | 1.7 | 0.00 | 0.01 | 0.01 | 40 | 1016.8 |
| 20260503215143 | 76 | 308 | 1.7 | 1.7 | 0.00 | 0.01 | 0.01 | 43 | 1016.7 |
| 20260503214643 | 76 | 305 | 1.7 | 1.7 | 0.00 | 0.01 | 0.01 | 39 | 1016.8 |
| 20260503214138 | 75 | 306 | 0.9 | 4.3 | 0.00 | 0.01 | 0.01 | 40 | 1016.8 |
| 20260503213638 | 76 | 312 | 3.5 | 6.1 | 0.00 | 0.01 | 0.01 | 40 | 1017.0 |
| 20260503213134 | 76 | 299 | 2.6 | 7.0 | 0.00 | 0.01 | 0.01 | 37 | 1017.1 |
| 20260503212631 | 75 | 305 | 0.9 | 2.6 | 0.00 | 0.01 | 0.01 | 37 | 1016.9 |
| 20260503212129 | 75 | 30 | 0.9 | 4.3 | 0.00 | 0.01 | 0.01 | 36 | 1017.3 |
| 20260503211626 | 76 | 353 | 2.6 | 2.6 | 0.00 | 0.01 | 0.01 | 35 | 1017.2 |
| 20260503211121 | 76 | 285 | 0.9 | 4.3 | 0.00 | 0.01 | 0.01 | 36 | 1017.4 |
| 20260503210618 | 77 | 300 | 1.7 | 2.6 | 0.00 | 0.01 | 0.01 | 37 | 1017.4 |
| 20260503210115 | 75 | 248 | 4.3 | 6.1 | 0.00 | 0.01 | 0.01 | 41 | 1017.6 |
| 20260503205611 | 75 | 299 | 1.7 | 6.1 | 0.00 | 0.01 | 0.01 | 38 | 1017.5 |
| 20260503205107 | 75 | 269 | 2.6 | 6.1 | 0.00 | 0.01 | 0.01 | 39 | 1017.5 |
| 20260503204604 | 75 | 346 | 1.7 | 5.2 | 0.00 | 0.01 | 0.01 | 39 | 1017.8 |
| 20260503204101 | 76 | 96 | 0.9 | 1.7 | 0.00 | 0.01 | 0.01 | 39 | 1017.6 |
| 20260503203558 | 76 | 314 | 0.9 | 1.7 | 0.00 | 0.01 | 0.01 | 43 | 1017.9 |
| 20260503203055 | 75 | 304 | 0.9 | 2.6 | 0.00 | 0.01 | 0.01 | 38 | 1018.1 |
| 20260503202553 | 75 | 328 | 2.6 | 5.2 | 0.00 | 0.01 | 0.01 | 37 | 1018.0 |
| 20260503202051 | 74 | 306 | 3.5 | 5.2 | 0.00 | 0.01 | 0.01 | 39 | 1018.2 |
| 20260503201549 | 75 | 320 | 3.5 | 5.2 | 0.00 | 0.01 | 0.01 | 37 | 1018.2 |
| 20260503201046 | 75 | 280 | 3.5 | 5.2 | 0.00 | 0.01 | 0.01 | 37 | 1018.2 |
| 20260503200541 | 75 | 326 | 1.7 | 1.7 | 0.00 | 0.01 | 0.01 | 35 | 1018.2 |
| 20260503200039 | 74 | 327 | 5.2 | 7.8 | 0.00 | 0.01 | 0.01 | 38 | 1018.3 |
| 20260503195536 | 75 | 0 | 4.3 | 5.2 | 0.00 | 0.01 | 0.01 | 36 | 1018.6 |
| 20260503195032 | 75 | 298 | 1.7 | 6.1 | 0.00 | 0.01 | 0.01 | 38 | 1018.6 |
| 20260503194530 | 74 | 299 | 4.3 | 12.2 | 0.00 | 0.01 | 0.01 | 39 | 1018.7 |
| 20260503194030 | 75 | 312 | 4.3 | 5.2 | 0.00 | 0.01 | 0.01 | 37 | 1018.6 |
| 20260503193527 | 74 | 354 | 2.6 | 4.3 | 0.00 | 0.01 | 0.01 | 38 | 1018.6 |
| 20260503193021 | 74 | 313 | 3.5 | 5.2 | 0.00 | 0.01 | 0.01 | 41 | 1018.9 |
| 20260503192518 | 74 | 299 | 3.5 | 7.8 | 0.00 | 0.01 | 0.01 | 37 | 1019.0 |
| 20260503192014 | 74 | 346 | 3.5 | 5.2 | 0.00 | 0.01 | 0.01 | 39 | 1018.8 |
| 20260503191511 | 74 | 331 | 1.7 | 5.2 | 0.00 | 0.01 | 0.01 | 42 | 1018.8 |
| 20260503191008 | 75 | 282 | 1.7 | 4.3 | 0.00 | 0.01 | 0.01 | 39 | 1019.1 |
| 20260503190505 | 76 | 269 | 0.9 | 1.7 | 0.00 | 0.01 | 0.01 | 41 | 1019.1 |
| 20260503190002 | 75 | 55 | 0.9 | 2.6 | 0.00 | 0.01 | 0.01 | 46 | 1019.5 |
| 20260503185458 | 74 | 103 | 1.7 | 1.7 | 0.00 | 0.01 | 0.01 | 40 | 1019.2 |
| 20260503184958 | 73 | 271 | 2.6 | 5.2 | 0.00 | 0.01 | 0.01 | 42 | 1019.4 |
| 20260503184454 | 73 | 22 | 2.6 | 7.8 | 0.00 | 0.01 | 0.01 | 43 | 1019.7 |
| 20260503183951 | 73 | 346 | 1.7 | 2.6 | 0.00 | 0.01 | 0.01 | 39 | 1019.8 |
| 20260503183448 | 73 | 18 | 0.9 | 4.3 | 0.00 | 0.01 | 0.01 | 40 | 1019.6 |
| 20260503182944 | 73 | 51 | 2.6 | 5.2 | 0.00 | 0.01 | 0.01 | 41 | 1019.7 |
| 20260503182443 | 73 | 352 | 4.3 | 7.8 | 0.00 | 0.01 | 0.01 | 38 | 1019.8 |
| 20260503181940 | 73 | 311 | 4.3 | 6.1 | 0.00 | 0.01 | 0.01 | 40 | 1019.5 |
| 20260503181437 | 73 | 348 | 4.3 | 7.8 | 0.00 | 0.01 | 0.01 | 41 | 1019.7 |
| 20260503180933 | 73 | 296 | 0.9 | 1.7 | 0.00 | 0.01 | 0.01 | 38 | 1019.8 |
| 20260503180432 | 72 | 50 | 1.7 | 2.6 | 0.00 | 0.01 | 0.01 | 40 | 1019.8 |
| 20260503175928 | 73 | 327 | 0.0 | 1.7 | 0.00 | 0.01 | 0.01 | 42 | 1020.1 |
| 20260503175426 | 73 | 69 | 2.6 | 5.2 | 0.00 | 0.01 | 0.01 | 39 | 1020.1 |
| 20260503174922 | 73 | 344 | 3.5 | 7.0 | 0.00 | 0.01 | 0.01 | 37 | 1019.9 |
| 20260503174421 | 73 | 350 | 0.9 | 1.7 | 0.00 | 0.01 | 0.01 | 42 | 1020.1 |
| 20260503173920 | 73 | 351 | 2.6 | 2.6 | 0.00 | 0.01 | 0.01 | 40 | 1020.2 |
| 20260503173417 | 73 | 333 | 1.7 | 2.6 | 0.00 | 0.01 | 0.01 | 41 | 1020.3 |
| 20260503172914 | 72 | 45 | 1.7 | 7.0 | 0.00 | 0.01 | 0.01 | 40 | 1020.4 |
| 20260503172411 | 72 | 15 | 2.6 | 4.3 | 0.00 | 0.01 | 0.01 | 40 | 1020.6 |
| 20260503171907 | 72 | 293 | 2.6 | 5.2 | 0.00 | 0.01 | 0.01 | 41 | 1020.6 |
| 20260503171404 | 73 | 311 | 1.7 | 1.7 | 0.00 | 0.01 | 0.01 | 40 | 1020.6 |
| 20260503170901 | 73 | 311 | 0.9 | 4.3 | 0.00 | 0.01 | 0.01 | 41 | 1020.8 |
| 20260503170358 | 73 | 290 | 2.6 | 8.7 | 0.00 | 0.01 | 0.01 | 40 | 1020.7 |